DELTA 1 DEB, 10843

Orbit data source: Space-Track

DELTA 1 DEB, 10843 is space debris in SSO originally from a launch on Thu, 29 Jul 1976 UTC launched from the Air Force Western Test Range (AFWTR). Debris objects in space refer to the collection of defunct objects orbiting the Earth. Examples of debris include non-operational satellites, rocket bodies, and fragments generated from explosions, collisions, or faulty payload assembly.

Loading next visibility...
Identifier
10843, 1976-077CP
Orbit
SSO
Country
Flag of USUS
Related business
Manufacturer
Unknown
Mission
Spacecraft
Bus & Motor
Unknown
Mass
Unknown
Launch date (UTC)
1976-07-29 (50 years ago)
Launch vehicle
Unknown
Launch site
Air Force Western Test Range (AFWTR)
Object type
Payload
Rocket body
Debris
Shape & HBR
Unknown shape, 0.1 m
Radar Cross Section
Small (<0.1 m²)

Expand to show TLE details & history
Last TLE update: 23 hours ago

TLE from 23 hours ago
0 DELTA 1 DEB
1 10843U 76077CP  26062.35989685 -.00000018  00000-0  15490-3 0  9994
2 10843 101.7040  33.6451 0117288 135.0044  24.7591 12.58561244275928
Epoch: 2026-03-03T08:38Z
TLE epoch observation values (Epoch: 2026-03-03T08:38:15.087Z)
Latitude
19.24253°
Longitude
-72.93164°
Altitude
1,348.055 km
Speed
7.224 km/s
True Right ascension
14h 31m 05s
True Declination
19° 08' 38"
Sunlit
Object was in full shadow at epoch
Visualization orbit readout
Latitude
Unknown
Longitude
Unknown
Altitude
Unknown
Speed
Unknown
Apparent Right ascension
Unknown
Apparent Declination
Unknown
Sunlit
N/A
Visualization observer readout
Local Sidereal Time
11:35:10
Azimuth
Unknown
Elevation
Unknown
Doppler factor
Unknown
Orbital elements
Apogee altitude
1,517.959 km
Perigee altitude
1,334.883 km
Semi-major axis
7,804.558 km
Eccentricity
0.01173
Inclination
101.704°
RAAN
33.6451°
Arg. of periapsis
135.0044°
True anomaly
25.32956°
Mean anomaly
24.7591°
Eccentric anomaly
25.04357°
Mean motion
3.1479 °/min
Orbital period
114.36 mins
BSTAR
0.0001549
Loading maneuver chart data...
Computing Atmospheric mass density...
Loading historical data...
Loading historical data...
Loading historical data...
Loading historical data...
Loading historical data...
Loading historical data...
Loading historical data...

Documentation

Showing up to 5 results
|